Flag for Norway Weather past 2 weeks in Jan Mayen, Jan Mayen, Norway

Now
46 °F

Cool.


Feels Like: 41 °F
Forecast: 46 / 49 °F
Wind: 8 mph from South

Location: Jan Mayen

Current Time: Aug 23, 2014 at 8:34:32 PM

Latest Report: Aug 23, 2014 at 7:00 PM


Visibility: N/A

Pressure: 29.84 "Hg

Humidity: 75%

Dew point: 38 °F

Location of Jan MayenLocation

Historic Weather in Jan Mayen — Graph

°F

Jan Mayen temperature yesterday

Maximum temperature yesterday: 47 °F (at 4:00 PM)
Minimum temperature yesterday: 36 °F (at 3:00 AM)
Average temperature yesterday: 42 °F

Past Weeks' High & Low Weather Summary

 TemperatureHumidityPressure
High51 °F (Aug 10, 11:00 AM)97% (Aug 9, 6:00 AM)30.12 "Hg (Aug 9, 6:00 AM)
Low36 °F (Aug 22, 3:00 AM)68% (Aug 19, 1:00 PM)29.81 "Hg (Aug 11, 7:00 AM)
Average44 °F82%29.97 "Hg
* Reported Aug 8 7:00 PM — Aug 23 7:00 PM, Jan Mayen, Weather by CustomWeather, © 2014

Note: Actual official high and low records may vary slightly from our data, if they occured in-between our weather recording intervals... More about our weather records

Advertising

Jan Mayen weather history for previous 24 hours

 ConditionsComfort  
Time TempWeatherWind HumidityBarometerVisibility
7:00 PM
Aug 23
46 °FCool.8 mph75%29.84 "HgN/A
6:00 PM45 °FCool.7 mph76%29.85 "HgN/A
5:00 PM45 °FOvercast.8 mph72%29.86 "Hg37 mi
4:00 PM44 °FQuite cool.8 mph73%29.86 "HgN/A
3:00 PM44 °FQuite cool.8 mph76%29.86 "HgN/A
2:00 PM44 °FOvercast.8 mph73%29.87 "Hg37 mi
1:00 PM44 °FQuite cool.8 mph74%29.87 "HgN/A
12:00 PM44 °FQuite cool.8 mph77%29.87 "HgN/A
11:00 AM43 °FOvercast.7 mph78%29.88 "Hg37 mi
10:00 AM43 °FQuite cool.7 mph76%29.88 "HgN/A
9:00 AM43 °FQuite cool.5 mph78%29.88 "HgN/A
8:00 AM42 °FOvercast.5 mph80%29.88 "Hg37 mi
7:00 AM42 °FQuite cool.2 mph79%29.88 "HgN/A
6:00 AM42 °FQuite cool.1 mph79%29.89 "HgN/A
5:00 AM42 °FQuite cool.3 mph81%29.90 "HgN/A
4:00 AM42 °FQuite cool.1 mph79%29.92 "HgN/A
3:00 AM42 °FQuite cool.2 mph79%29.93 "HgN/A
2:00 AM42 °FOvercast.1 mph79%29.94 "Hg31 mi
1:00 AM42 °FQuite cool.1 mph80%29.95 "HgN/A
12:00 AM42 °FQuite cool.3 mph79%29.96 "HgN/A
11:00 PM
Aug 22
44 °FQuite cool.1 mph79%29.97 "HgN/A
10:00 PM44 °FQuite cool.3 mph79%29.98 "HgN/A
9:00 PM44 °FQuite cool.2 mph79%29.99 "HgN/A
8:00 PM45 °FPartly sunny.2 mph76%29.99 "Hg31 mi
Weather by CustomWeather, © 2014

See weather overviewHow to use our weather pages